EW6749 Weather Reports


time (UTC)temp
C
wind
direction
speed
KPH
gust
KPH
rain 1hr
cm
rain 24hr
cm
rain mn
cm
humidity
%
barometer
mb
20220813160112 17 0.0 0.0 0.00 0.00 0.00 74 1018.1
20220813155226 17 0.0 1.6 0.00 0.00 0.00 75 1018.1
20220813154020 17 0.0 1.6 0.00 0.00 0.00 77 1018.1
20220813153046 16 0.0 1.6 0.00 0.00 0.00 79 1018.1
20220813152027 16 0.0 1.6 0.00 0.00 0.00 79 1018.1
20220813151021 16 0.0 1.6 0.00 0.00 0.00 81 1018.1
20220813150111 15 0.0 0.0 0.00 0.00 0.00 84 1018.0
20220813144022 13 0.0 0.0 0.00 0.00 0.00 88 1017.9
20220813143022 13 0.0 0.0 0.00 0.00 0.00 88 1018.0
20220813142047 13 0.0 0.0 0.00 0.00 0.00 89 1017.9
20220813141114 12 0.0 0.0 0.00 0.00 0.00 88 1017.9
20220813140022 12 0.0 3.2 0.00 0.00 0.00 88 1017.9
20220813135022 12 0.0 0.0 0.00 0.00 0.00 87 1017.8
20220813134547 12 0.0 0.0 0.00 0.00 0.00 87 1017.8
20220813133547 12 0.0 0.0 0.00 0.00 0.00 88 1017.6
20220813132522 12 0.0 0.0 0.00 0.00 0.00 88 1017.5
20220813131612 12 0.0 0.0 0.00 0.00 0.00 89 1017.5
20220813130523 12 0.0 0.0 0.00 0.00 0.00 86 1017.4
20220813125548 12 0.0 0.0 0.00 0.00 0.00 86 1017.3
20220813124522 12 0.0 0.0 0.00 0.00 0.00 86 1017.2
20220813122702 12 0.0 0.0 0.00 0.00 0.00 87 1017.1
20220813121613 12 0.0 0.0 0.00 0.00 0.00 87 1017.2
20220813120613 12 0.0 0.0 0.00 0.00 0.00 85 1017.2
20220813115547 12 0.0 0.0 0.00 0.00 0.00 85 1017.0
20220813114637 12 0.0 0.0 0.00 0.00 0.00 84 1017.1
20220813113522 12 0.0 0.0 0.00 0.00 0.00 86 1017.1
20220813112547 12 0.0 0.0 0.00 0.00 0.00 84 1017.1
20220813111522 12 0.0 0.0 0.00 0.00 0.00 84 1017.1
20220813110547 12 0.0 0.0 0.00 0.00 0.00 83 1017.1
20220813105547 12 0.0 0.0 0.00 0.00 0.00 82 1017.1
20220813104643 12 0.0 0.0 0.00 0.00 0.00 82 1017.0
20220813103612 12 0.0 0.0 0.00 0.00 0.00 81 1017.0
20220813102612 13 0.0 0.0 0.00 0.00 0.00 81 1016.9
20220813101523 13 0.0 0.0 0.00 0.00 0.00 81 1016.9
20220813100522 13 0.0 0.0 0.00 0.00 0.00 78 1017.0
20220813095522 13 0.0 0.0 0.00 0.00 0.00 78 1017.0
20220813094547 13 0.0 0.0 0.00 0.00 0.00 76 1016.9
20220813093612 13 0.0 0.0 0.00 0.00 0.00 74 1017.0
20220813092547 13 0.0 0.0 0.00 0.00 0.00 76 1016.9
20220813091523 13 0.0 1.6 0.00 0.00 0.00 74 1016.9
20220813090522 13 0.0 0.0 0.00 0.00 0.00 75 1016.9
20220813085521 13 0.0 0.0 0.00 0.00 0.00 76 1017.0
20220813084522 13 0.0 0.0 0.00 0.00 0.00 72 1017.0
20220813083702 13 0.0 0.0 0.00 0.00 0.00 69 1017.1
20220813082546 13 0.0 0.0 0.00 0.00 0.00 72 1017.2
20220813081547 13 0.0 0.0 0.00 0.00 0.00 73 1017.2
20220813080522 13 0.0 0.0 0.00 0.00 0.00 72 1017.3
20220813075521 14 0.0 0.0 0.00 0.00 0.00 72 1017.4
20220813074727 14 0.0 0.0 0.00 0.00 0.00 73 1017.3
20220813073612 14 0.0 1.6 0.00 0.00 0.00 73 1017.3
20220813072547 14 0.0 1.6 0.00 0.00 0.00 75 1017.3
20220813071521 14 0.0 0.0 0.00 0.00 0.00 80 1017.4
20220813070521 15 0.0 0.0 0.00 0.00 0.00 81 1017.3
20220813065522 15 0.0 0.0 0.00 0.00 0.00 82 1017.5
20220813064522 15 0.0 0.0 0.00 0.00 0.00 81 1017.6
20220813063547 15 0.0 0.0 0.00 0.00 0.00 80 1017.6
20220813062547 15 0.0 0.0 0.00 0.00 0.00 80 1017.7
20220813061612 15 0.0 0.0 0.00 0.00 0.00 79 1017.7
20220813060522 15 0.0 0.0 0.00 0.00 0.00 79 1017.7
20220813055547 15 0.0 0.0 0.00 0.00 0.00 78 1017.7
20220813054522 15 0.0 0.0 0.00 0.00 0.00 78 1017.6
20220813053522 15 0.0 0.0 0.00 0.00 0.00 77 1017.8
20220813052612 16 0.0 0.0 0.00 0.00 0.00 77 1017.7
20220813051702 16 0.0 0.0 0.00 0.00 0.00 76 1017.7
20220813050522 16 0.0 0.0 0.00 0.00 0.00 76 1017.6
20220813045522 16 0.0 0.0 0.00 0.00 0.00 75 1017.7
20220813044612 16 0.0 0.0 0.00 0.00 0.00 74 1017.7
20220813043522 17 0.0 0.0 0.00 0.00 0.00 73 1017.5
20220813042547 17 0.0 0.0 0.00 0.00 0.00 72 1017.4
20220813041522 17 0.0 0.0 0.00 0.00 0.00 71 1017.3
20220813040637 18 0.0 0.0 0.00 0.00 0.00 69 1017.2
20220813035522 18 0.0 0.0 0.00 0.00 0.00 69 1017.2
20220813034522 18 0.0 0.0 0.00 0.00 0.00 68 1017.1
20220813033522 19 0.0 0.0 0.00 0.00 0.00 67 1017.0
20220813032522 20 0.0 0.0 0.00 0.00 0.00 67 1017.0
20220813031637 20 0.0 0.0 0.00 0.00 0.00 65 1016.9
20220813030612 20 0.0 0.0 0.00 0.00 0.00 64 1016.9
20220813025522 21 0.0 0.0 0.00 0.00 0.00 62 1016.8
20220813024522 21 0.0 0.0 0.00 0.00 0.00 63 1016.8
20220813023522 22 0.0 1.6 0.00 0.00 0.00 62 1016.8
20220813022522 22 0.0 0.0 0.00 0.00 0.00 61 1016.7
20220813021522 23 0.0 0.0 0.00 0.00 0.00 61 1016.7
20220813020612 23 0.0 0.0 0.00 0.00 0.00 58 1016.7
20220813015522 25 0.0 1.6 0.00 0.00 0.00 55 1016.7
20220813014521 25 0.0 0.0 0.00 0.00 0.00 55 1016.7
20220813013521 25 0.0 1.6 0.00 0.00 0.00 55 1016.7
20220813012612 25 0.0 1.6 0.00 0.00 0.00 55 1016.6
20220813011547 25 0.0 1.6 0.00 0.00 0.00 54 1016.5
20220813010547 26 0.0 3.2 0.00 0.00 0.00 54 1016.6
20220813005522 26 0.0 4.8 0.00 0.00 0.00 53 1016.6
20220813004521 26 135 1.6 4.8 0.00 0.00 0.00 52 1016.6
20220813003522 26 0.0 4.8 0.00 0.00 0.00 51 1016.7
20220813002521 27 0.0 1.6 0.00 0.00 0.00 51 1016.8
20220813001611 27 0.0 1.6 0.00 0.00 0.00 52 1016.8
20220813000521 26 0.0 1.6 0.00 0.00 0.00 51 1016.7
20220812235521 26 135 1.6 4.8 0.00 0.00 0.00 50 1016.8
20220812234521 27 0.0 3.2 0.00 0.00 0.00 50 1017.0
20220812233521 26 0.0 3.2 0.00 0.00 0.00 51 1017.0
20220812232547 26 158 1.6 6.4 0.00 0.00 0.00 51 1017.1
20220812231638 26 0.0 3.2 0.00 0.00 0.00 52 1017.1
20220812230703 26 135 1.6 6.4 0.00 0.00 0.00 51 1017.2
20220812224546 26 135 1.6 6.4 0.00 0.00 0.00 52 1017.3
20220812223727 26 0.0 3.2 0.00 0.00 0.00 52 1017.4
20220812222546 26 135 1.6 8.0 0.00 0.00 0.00 52 1017.5
20220812221637 26 135 1.6 6.4 0.00 0.00 0.00 53 1017.6
20220812220611 26 135 1.6 6.4 0.00 0.00 0.00 53 1017.7
20220812215546 26 135 1.6 6.4 0.00 0.00 0.00 53 1017.8
20220812214521 26 135 1.6 6.4 0.00 0.00 0.00 52 1017.9
20220812213521 27 113 1.6 8.0 0.00 0.00 0.00 53 1017.8
20220812212521 27 0.0 1.6 0.00 0.00 0.00 54 1017.9
20220812211612 27 248 1.6 4.8 0.00 0.00 0.00 54 1018.1
20220812210521 26 135 1.6 4.8 0.00 0.00 0.00 54 1018.1
20220812205611 26 270 1.6 6.4 0.00 0.00 0.00 54 1018.3
20220812204637 27 135 1.6 6.4 0.00 0.00 0.00 54 1018.3
20220812203521 27 135 1.6 4.8 0.00 0.00 0.00 54 1018.3
20220812202521 26 135 1.6 6.4 0.00 0.00 0.00 56 1018.2
20220812201521 26 135 1.6 8.0 0.00 0.00 0.00 56 1018.4
20220812200546 26 293 1.6 6.4 0.00 0.00 0.00 55 1018.4
20220812195521 26 135 1.6 6.4 0.00 0.00 0.00 57 1018.5
20220812194546 26 293 1.6 4.8 0.00 0.00 0.00 56 1018.5
20220812193546 26 135 1.6 4.8 0.00 0.00 0.00 56 1018.6
20220812192521 26 135 1.6 4.8 0.00 0.00 0.00 56 1018.7
20220812191521 26 0.0 1.6 0.00 0.00 0.00 56 1018.5
20220812190521 25 135 1.6 3.2 0.00 0.00 0.00 56 1018.6
20220812185611 25 0.0 3.2 0.00 0.00 0.00 56 1018.6
20220812184521 25 0.0 3.2 0.00 0.00 0.00 55 1018.6
20220812183702 25 135 1.6 4.8 0.00 0.00 0.00 56 1018.6
20220812182546 25 0.0 3.2 0.00 0.00 0.00 57 1018.8
20220812181521 25 0.0 4.8 0.00 0.00 0.00 57 1018.8
20220812180636 23 0.0 3.2 0.00 0.00 0.00 57 1018.8
20220812175521 23 0.0 1.6 0.00 0.00 0.00 60 1018.8
20220812174611 23 0.0 1.6 0.00 0.00 0.00 62 1018.9
20220812173520 22 0.0 1.6 0.00 0.00 0.00 63 1018.9
20220812172520 22 0.0 1.6 0.00 0.00 0.00 64 1018.7
20220812171520 21 0.0 3.2 0.00 0.00 0.00 65 1018.7
20220812170546 21 0.0 1.6 0.00 0.00 0.00 66 1018.7
20220812165549 20 0.0 1.6 0.00 0.00 0.00 68 1018.7
20220812164521 20 0.0 3.2 0.00 0.00 0.00 70 1018.7
20220812163546 19 0.0 1.6 0.00 0.00 0.00 73 1018.7
20220812162611 18 0.0 0.0 0.00 0.00 0.00 76 1018.7
20220812161726 17 0.0 0.0 0.00 0.00 0.00 76 1018.9